Home   Weather   Portland   Past weeks
Flag for USA

Past Weather in Portland, Oregon, USA — Yesterday and Last 2 Weeks

Now
46 °F

Light rain. Mostly cloudy.


Feels Like: 41 °F
Forecast: 48 / 42 °F
Wind: 10 mph from Southeast

Location: Portland International Airport

Current Time: Jan 18, 2019 at 2:38:30 pm

Latest Report: Jan 18, 2019 at 1:53 pm


Visibility: 7 mi

Pressure: 30.07 "Hg

Humidity: 83%

Dew Point: 41 °F

Location of PortlandLocation

Past Weather in Portland — Graph

°F

Portland Temperature Yesterday

Maximum temperature yesterday: 54 °F (at 2:53 pm)
Minimum temperature yesterday: 41 °F (at 7:53 am)
Average temperature yesterday: 46 °F

High & Low Weather Summary for the Past Weeks

 TemperatureHumidityPressure
High54 °F (Jan 3, 12:53 pm)97% (Jan 5, 4:16 am)30.19 "Hg (Jan 5, 4:16 am)
Low34 °F (Jan 12, 6:53 am)43% (Jan 13, 2:53 pm)29.18 "Hg (Jan 5, 6:53 pm)
Average44 °F72%29.86 "Hg
* Reported Jan 3 11:53 am — Jan 18 11:53 am, Portland. Weather by CustomWeather, © 2019

Note: Actual official high and low records may vary slightly from our data, if they occured in-between our weather recording intervals... More about our weather records

Advertising

Portland Weather History for the Previous 24 Hours

Scroll right to see more
 ConditionsComfort  
Time TempWeatherWind HumidityBarometerVisibility
11:53 am
Fri, Jan 18
47 °FOvercast.10 mph74%30.13 "Hg10 mi
10:53 am46 °FCloudy.13 mph79%30.15 "Hg10 mi
9:53 am44 °FMore clouds than sun.15 mph82%30.15 "Hg10 mi
8:53 am43 °FCloudy.10 mph86%30.16 "Hg10 mi
7:53 am42 °FPartly sunny.7 mph89%30.16 "Hg10 mi
6:53 am43 °FMostly cloudy.9 mph89%30.16 "Hg10 mi
5:53 am44 °FLight rain. Partly cloudy.7 mph85%30.15 "Hg10 mi
4:53 am45 °FLight rain. Mostly cloudy.5 mph82%30.14 "Hg10 mi
3:53 am47 °FOvercast.10 mph77%30.12 "Hg10 mi
2:53 am46 °FPassing clouds.15 mph79%30.10 "Hg10 mi
1:53 am46 °FPassing clouds.14 mph79%30.10 "Hg10 mi
12:53 am47 °FPassing clouds.7 mph74%30.06 "Hg10 mi
11:53 pm
Thu, Jan 17
47 °FPartly cloudy.15 mph77%30.03 "Hg10 mi
10:53 pm47 °FPassing clouds.18 mph77%29.98 "Hg10 mi
9:53 pm47 °FPassing clouds.14 mph77%29.95 "Hg10 mi
8:53 pm48 °FPassing clouds.13 mph77%29.90 "Hg10 mi
7:53 pm49 °FMostly cloudy.17 mph74%29.86 "Hg10 mi
6:53 pm48 °FPassing clouds.16 mph80%29.81 "Hg10 mi
5:53 pm50 °FMostly cloudy.13 mph71%29.78 "Hg10 mi
4:53 pm50 °FLight rain. Cloudy.15 mph71%29.74 "Hg10 mi
3:53 pm51 °FLight rain. Cloudy.23 mph69%29.70 "Hg10 mi
3:17 pm53 °FMostly cloudy.22 mph59%29.67 "Hg10 mi
2:53 pm54 °FMostly cloudy.25 mph57%29.64 "Hg10 mi
Weather by CustomWeather, © 2019

See weather overview